Watertown, SD

7:55 AM CDT on September 24, 2017 (GMT -0500)
Watertown Municipal

Weather History for KATY - November, 2013

Change the Weather History Date:

Saturday, November 9, 2013

  Actual Average Record
Temperature  
Mean Temperature 34 °F 34 °F  
Max Temperature 42 °F 43 °F 71 °F (1930)
Min Temperature 26 °F 24 °F 1 °F (1921)
Degree Days  
Heating Degree Days 31 31  
Month to date heating degree days 258 261  
Since 1 July heating degree days 1024 1145  
Cooling Degree Days 0 0  
Month to date cooling degree days 0 0  
Year to date cooling degree days 618 515  
Moisture  
Dew Point 29 °F    
Average Humidity 70    
Maximum Humidity 89    
Minimum Humidity 51    
Precipitation  
Precipitation 0.00 in 0.03 in 1.50 in (1977)
Month to date precipitation T 0.28  
Year to date precipitation 24.15 21.07  
Snow  
Snow 0.00 in - - ()
Month to date snowfall 0.0  
Since 1 July snowfall 0.3  
Snow Depth 0.00 in    
Sea Level Pressure  
Sea Level Pressure 30.05 in    
Wind  
Wind Speed 16 mph (NW)    
Max Wind Speed 29 mph    
Max Gust Speed 38 mph    
Visibility 10 miles    
Events      
T = Trace of Precipitation, MM = Missing Value Source: NWS Daily Summary

Daily Weather History Graph

Daily Weather History Graph

Search for Another Location

Airport or City:

Trip Planner

Search our weather history database for the weather conditions in past years. The results will help you decide how hot, cold, wet, or windy it might be!

Date:

Astronomy

Nov. 09, 2013 Rise Set
Actual Time 7:18 AM CST 5:06 PM CST
Civil Twilight 6:46 AM CST 5:37 PM CST
Nautical Twilight 6:11 AM CST 6:12 PM CST
Astronomical Twilight 5:37 AM CST 6:46 PM CST
Moon 12:53 PM CST (11/9) 11:41 PM CST (11/9)
Length of Visible Light 10h 50m
Length of Day
9h 47m
Waxing Crescent, 44% of the Moon is Illuminated
Nov 9
Waxing Crescent
Nov 9
First Quarter
Nov 17
Full
Nov 25
Last Quarter
Dec 2
New

Hourly Weather History & Observations

Time (CST) Temp. Windchill Dew Point Humidity Pressure Visibility Wind Dir Wind Speed Gust Speed Precip Events Conditions
12:53 AM 42.1 °F 35.2 °F 37.9 °F 85% 29.76 in 10.0 mi WSW 12.7 mph - N/A   Overcast
1:53 AM 42.1 °F 34.9 °F 37.0 °F 82% 29.79 in 10.0 mi West 13.8 mph - N/A   Overcast
2:36 AM 41.0 °F 33.1 °F 35.6 °F 81% 29.78 in 10.0 mi WNW 15.0 mph 21.9 mph N/A   Overcast
2:49 AM 41.0 °F 33.9 °F 35.6 °F 81% 29.78 in 10.0 mi WNW 12.7 mph - N/A   Overcast
2:53 AM 41.0 °F 33.5 °F 36.0 °F 82% 29.81 in 10.0 mi WNW 13.8 mph - N/A   Overcast
3:53 AM 39.9 °F 32.5 °F 36.0 °F 86% 29.84 in 10.0 mi WNW 12.7 mph - N/A   Overcast
4:53 AM 39.9 °F 31.1 °F 35.1 °F 83% 29.88 in 10.0 mi WNW 17.3 mph 25.3 mph N/A   Overcast
5:53 AM 39.0 °F 30.6 °F 34.0 °F 82% 29.91 in 10.0 mi NW 15.0 mph - N/A   Overcast
6:53 AM 37.9 °F 28.2 °F 33.1 °F 83% 29.94 in 10.0 mi NW 18.4 mph 31.1 mph N/A   Overcast
7:53 AM 37.0 °F 29.3 °F 33.1 °F 86% 29.99 in - WNW 11.5 mph - N/A   Unknown
8:20 AM 37.4 °F 27.5 °F 32.0 °F 81% 29.96 in 10.0 mi WNW 18.4 mph 29.9 mph N/A   Overcast
8:53 AM 37.9 °F 26.8 °F 30.9 °F 76% 30.01 in 10.0 mi NW 24.2 mph 31.1 mph N/A   Overcast
9:53 AM 37.9 °F 30.0 °F 30.9 °F 76% 30.04 in 10.0 mi WNW 12.7 mph 26.5 mph N/A   Overcast
10:53 AM 39.9 °F 29.7 °F 30.0 °F 68% 30.06 in 10.0 mi NW 23.0 mph 35.7 mph N/A   Overcast
11:49 AM 41.0 °F 31.1 °F 26.6 °F 57% 30.03 in 10.0 mi WNW 23.0 mph 38.0 mph N/A   Scattered Clouds
11:53 AM 41.0 °F 30.2 °F 28.0 °F 60% 30.06 in 10.0 mi NW 27.6 mph 36.8 mph N/A   Partly Cloudy
12:53 PM 41.0 °F 30.9 °F 26.1 °F 55% 30.08 in 10.0 mi NW 24.2 mph 34.5 mph N/A   Partly Cloudy
1:53 PM 41.0 °F 31.6 °F 25.0 °F 53% 30.10 in 10.0 mi WNW 20.7 mph 32.2 mph N/A   Scattered Clouds
2:53 PM 39.9 °F 30.8 °F 26.1 °F 58% 30.13 in 10.0 mi NW 18.4 mph 31.1 mph N/A   Mostly Cloudy
3:53 PM 39.9 °F 30.8 °F 25.0 °F 55% 30.16 in 10.0 mi WNW 18.4 mph 27.6 mph N/A   Scattered Clouds
4:53 PM 37.9 °F 27.3 °F 25.0 °F 60% 30.19 in 10.0 mi NW 21.9 mph 31.1 mph N/A   Clear
5:53 PM 34.0 °F 25.0 °F 24.1 °F 67% 30.23 in 10.0 mi NNW 12.7 mph - N/A   Clear
6:53 PM 30.9 °F 20.7 °F 24.1 °F 76% 30.27 in 10.0 mi NNW 13.8 mph - N/A   Clear
7:53 PM 30.0 °F 20.5 °F 23.0 °F 75% 30.30 in 10.0 mi NNW 11.5 mph - N/A   Clear
8:53 PM 28.9 °F 19.2 °F 23.0 °F 78% 30.32 in 10.0 mi NNW 11.5 mph - N/A   Clear
9:53 PM 28.0 °F 18.6 °F 23.0 °F 81% 30.35 in 10.0 mi NW 10.4 mph - N/A   Clear
10:53 PM 27.0 °F 17.3 °F 23.0 °F 85% 30.36 in 10.0 mi NW 10.4 mph - N/A   Clear
11:53 PM 26.1 °F 16.8 °F 23.0 °F 88% 30.36 in 10.0 mi NW 9.2 mph - N/A   Clear